Location: Fort Worth, Tx
(32.7431°N, 97.3695°W)
Time: 07:07:46
(UTC-05:00)

Explorer 11/Cluster Stage 4 - Pass Details

Date: 09 February 2026
Orbit: 463 x 1176 km, 28.8° (Epoch: 5 March)

Event Time Altitude Azimuth Distance (km) Brightness Sun altitude
Rises 21:59:29 0° 269° (W) 3,001 10.6 -36.1°
Reaches altitude 10° 22:01:47 10° 262° (W) 2,192 9.6 -36.6°
Enters shadow 22:03:50 23° 248° (WSW) 1,566 8.5 -37.0°
